x

Halibut Bank (46146) Wave Buoy

3:00 - Mon 22nd Sep 2014 All times are PDT. -7 hours from GMT.

  • Sig Wave height 2.0ft
  • Peak Period 4s
  • Wind
    22mph, 27mph gusts
  • Sea Temp 62°f
  • Air Temp 50°f
  • Sea Pressure 1011.8mb
  • Halibut Bank
  • Halibut Bank

More Historic Weather Station data

Upgrade to MSW Pro to gain access to the past 30 days of data for over 8000 Wavebouys and Weather Stations around the globe.

Join Pro

Comparision Forecast

View Surf forecast
   
lun. 09/22 3:00 2ft 4s 22 27 mph 1011.8mb 62f 50f
2:00 2.5ft 4s 18 22 mph 1011.6mb 62f 50f
1:00 2ft 4s 18 22 mph 1011.2mb 63f 51f
12:00 2ft 4s 20 25 mph 1010.8mb 63f 52f
dim. 09/21 11:00 1ft 3s 18 25 mph 1010.4mb 63f 51f
10:00 0.7ft 2s 13 16 mph 1010.2mb 63f 52f
9:00 0.7ft 2s 11 13 mph 1009.8mb 63f 52f
8:00 0.7ft 7s 13 16 mph 1009.4mb 63f 52f
7:00 0.3ft 2s 11 13 mph 1008.9mb 63f 51f
6:00 0.3ft 5s 11 13 mph 1008.6mb 63f 52f
5:00 0.3ft 6s 9
mph
1008.8mb 64f 52f
4:00 0.3ft 3s 7
mph
1009.1mb 64f 51f
3:00 0.3ft 2s 11
mph
1009.3mb 64f 51f
2:00 0.3ft 7s 11
mph
1009.8mb 64f 51f
1:00 0.3ft 3s 9
mph
1010.5mb 64f 51f
12:00 0.3ft 14s 7 9 mph 1011.1mb 63f 51f
11:00 0.3ft 3s 4 7 mph 1011.5mb 63f 50f
10:00 0.3ft 4s 4
mph
1011.5mb 63f 49f
9:00 0.3ft 2s 2 4 mph 1011.7mb 62f 49f
8:00 0.3ft 6s 4
mph
1011.7mb 62f 49f
7:00  -  4s 7
mph
1011.6mb 62f 49f
6:00  -  4s  -  mph 1011.2mb 62f 48f
5:00 0.3ft 2s 7
mph
1011.1mb 62f 48f
4:00  -  2s 2
mph
1011.4mb 62f 48f
3:00 0.3ft 2s 9 11 mph 1011.8mb 62f 48f
2:00 0.3ft 2s 2 4 mph 1012.2mb 62f 48f
1:00 0.3ft 3s 2
mph
1012.3mb 62f 49f
12:00 0.3ft 2s 4 7 mph 1012.6mb 62f 49f
sam. 09/20 11:00 0.3ft 4s 4
mph
1013.1mb 62f 50f
10:00 0.3ft 3s 7
mph
1013.1mb 62f 50f
9:00 0.7ft 3s 7 9 mph 1013.1mb 62f 50f
8:00 0.7ft 2s 9
mph
1013.2mb 62f 51f
7:00 0.7ft 3s 11 13 mph 1013.4mb 62f 50f
6:00 1ft 3s 11 13 mph 1014.1mb 62f 51f
5:00 1ft 3s 11 13 mph 1015.1mb 62f 50f
4:00 1.3ft 3s 11 13 mph 1016mb 61f 50f
3:00 1.3ft 3s 13 16 mph 1016.8mb 61f 50f
2:00 1.3ft 3s 13 16 mph 1017.8mb 61f 50f
1:00 1ft 3s 13 16 mph 1019.1mb 61f 49f
12:00 1ft 3s 11 13 mph 1020mb 61f 49f
11:00 1ft 3s 13 16 mph 1020.6mb 61f 49f
10:00 0.7ft 3s 11 13 mph 1021.2mb 60f 48f
9:00 0.7ft 3s 7 11 mph 1021.2mb 60f 48f
8:00 0.7ft 3s 7 9 mph 1021.3mb 60f 47f
7:00 0.7ft 2s 7 9 mph 1021.2mb 60f 47f
6:00 0.7ft 2s 7 9 mph 1021mb 60f 47f
5:00 0.7ft 2s 9 11 mph 1021mb 60f 47f
4:00 0.3ft 2s 9 11 mph 1021mb 60f 48f
3:00 0.3ft 2s 9 11 mph 1021mb 60f 47f
2:00 0.3ft 2s 7 9 mph 1021.1mb 60f 47f
1:00 0.3ft 2s 9
mph
1021.1mb 60f 47f
12:00 0.3ft 6s  -  2 mph 1021.1mb 60f 48f
ven. 09/19 11:00 0.3ft 5s 2 4 mph 1021.1mb 60f 48f
10:00 0.3ft 2s 2 4 mph 1020.7mb 60f 47f
9:00 0.3ft 6s 4
mph
1020.3mb 60f 47f
8:00 0.3ft 2s 2 4 mph 1020mb 61f 47f
7:00 0.7ft 3s 4
mph
1019.5mb 61f 49f
6:00 0.7ft 2s 4
mph
1019.5mb 60f 49f
5:00 0.7ft 3s 7
mph
1019.3mb 60f 49f
4:00 1ft 3s 7
mph
1019.1mb 60f 48f
3:00 1.3ft 3s 9 11 mph 1019.2mb 60f 48f
2:00 1.3ft 3s 11 13 mph 1019.1mb 60f 47f
1:00 1.3ft 3s 16 18 mph 1019.2mb 60f 47f
12:00 1.3ft 3s 13 18 mph 1019.1mb 60f 46f
11:00 2ft 3s 16 18 mph 1018.6mb 60f 47f
10:00 1.6ft 3s 18 20 mph 1018.1mb 60f 47f
9:00 1.6ft 3s 18 20 mph 1017mb 60f 47f
8:00 1.6ft 3s 18 20 mph 1016.2mb 60f 47f
7:00 1.3ft 3s 16 20 mph 1015.6mb 60f 47f
6:00 1ft 3s 16 18 mph 1015mb 60f 47f
5:00 1ft 3s 16 18 mph 1014.4mb 60f 48f
4:00 1ft 3s 13 16 mph 1014.2mb 59f 47f
3:00 1ft 3s 13 16 mph 1013.9mb 58f 47f
2:00 1ft 3s 13 16 mph 1014.1mb 58f 47f
1:00 1ft 3s 18 20 mph 1013.1mb 59f 48f
12:00 1ft 3s 13 18 mph 1013.1mb 59f 48f
jeu. 09/18 11:00 1ft 3s 13 16 mph 1012.6mb 60f 49f
10:00 1ft 3s 13 16 mph 1012.3mb 60f 48f
9:00 1.3ft 3s 16 18 mph 1012mb 60f 49f
8:00 1.3ft 3s 16 18 mph 1011.5mb 60f 48f
7:00 1ft 3s 16 18 mph 1010.4mb 61f 48f
6:00 1ft 3s 13
mph
1010.5mb 61f 48f
5:00 1ft 3s 11 13 mph 1010.2mb 61f 48f
4:00 0.7ft 2s 11 13 mph 1010.1mb 61f 48f
3:00 0.3ft 2s 11
mph
1009.5mb 61f 47f
2:00 0.3ft 2s 11
mph
1009.4mb 61f 47f
1:00 0.3ft 6s 11
mph
1009.2mb 62f 47f
12:00 0.7ft 2s 9
mph
1008.9mb 61f 47f